AirNav   Everest Fuels
 
 1089 users online  

KSGS South St Paul Municipal Airport-Richard E Fleming Field
South St Paul, Minnesota, USA

GOING TO SOUTH ST PAUL?


FAA INFORMATION EFFECTIVE 25 MARCH 2021

Location

FAA Identifier: SGS
Lat/Long: 44-51-25.7000N 093-01-58.3000W
44-51.428333N 093-01.971667W
44.8571389,-93.0328611
(estimated)
Elevation: 821 ft. / 250.2 m (surveyed)
Variation: 00E (2015)
From city: 2 miles S of SOUTH ST PAUL, MN
Time zone: UTC -5 (UTC -6 during Standard Time)
Zip code: 55076

Airport Operations

Airport use: Open to the public
Activation date: 10/1941
Control tower: no
ARTCC: MINNEAPOLIS CENTER
FSS: PRINCETON FLIGHT SERVICE STATION
NOTAMs facility: SGS (NOTAM-D service available)
Attendance: MON-SAT 0830-1700, ALL SUN 0830-1530
Pattern altitude: 1721 ft. MSL
Wind indicator: lighted
Segmented circle: yes
Lights: ACTVT PAPI RWY 16 & 34; MIRL RWY 16/34 PRESET LOW INTST; TO INCR INTST - CTAF.
Beacon: white-green (lighted land airport)
Operates sunset to sunrise.

Airport Communications

CTAF/UNICOM: 122.7
WX AWOS-3: 119.425 (651-457-8120)
MINNEAPOLIS APPROACH: 121.2
MINNEAPOLIS DEPARTURE: 121.2
CLEARANCE DELIVERY: 118.2
WX ASOS at STP (5 nm N): 118.35 (651-312-8888)
WX ASOS at MSP (8 nm W): 135.35 (612-713-4174)
WX AWOS-3 at 21D (11 nm NE): 120.075 (651-779-5949)
WX AWOS-3 at LVN (16 nm SW): 118.0 (952-469-5850)
WX ASOS at FCM (18 nm W): 124.9 (952-941-4156)
WX ASOS at MIC (18 nm NW): 125.7 (763-531-2343)
WX AWOS-3 at ANE (19 nm NW): 120.625 (763-780-9025)
  • CLEARANCE DELIVERY PRVDD BY MINNEAPOLIS APCH CTL ON FREQ 118.2.

Nearby radio navigation aids

VOR radial/distance  VOR name  Freq  Var
MSPr103/9.0MINNEAPOLIS VOR/DME115.3002E
FGTr019/15.0FARMINGTON VORTAC115.7006E
FCMr083/17.5FLYING CLOUD VOR/DME117.7001E
GEPr134/22.5GOPHER VORTAC117.3006E

Airport Services

Fuel available: 100LL JET-A UL94
SELF SERVE FUEL AVBL WITH CREDIT CARD 24 HRS.
Parking: hangars and tiedowns
Airframe service: MAJOR
Powerplant service: MINOR
Bottled oxygen: NONE
Bulk oxygen: NONE

Runway Information

Runway 16/34

Dimensions: 4002 x 100 ft. / 1220 x 30 m
Surface: asphalt, in good condition
Weight bearing capacity: 
Single wheel: 30.0
Double wheel: 57.0
Runway edge lights: medium intensity
RUNWAY 16  RUNWAY 34
Latitude: 44-51.742075N44-51.114242N
Longitude: 093-02.110807W093-01.831560W
Elevation: 820.8 ft.818.8 ft.
Traffic pattern: leftleft
Runway heading: 162342
Markings: nonprecision, in good conditionnonprecision, in good condition
Visual slope indicator: 4-light PAPI on left (3.00 degrees glide path)4-light PAPI on left (3.00 degrees glide path)
Touchdown point: yes, no lightsyes, no lights
Instrument approach: LOC/DME
Obstructions: none77 ft. trees, 2068 ft. from runway, 205 ft. left of centerline, 24:1 slope to clear

Airport Ownership and Management from official FAA records

Ownership: Publicly-owned
Owner: CITY OF SOUTH ST. PAUL
125 3RD AVE N
SOUTH ST PAUL, MN 55075
Phone 651-450-3200
Manager: ANDREW WALL
1725 HENRY AVE
SOUTH ST PAUL, MN 55075
Phone (651) 554-3350

Airport Operational Statistics

Aircraft based on the field: 221
Single engine airplanes: 202
Multi engine airplanes: 10
Helicopters: 4
Gliders airplanes: 5
    
Aircraft operations: avg 140/day *
82% local general aviation
18% transient general aviation
* for 12-month period ending 19 July 2019

Additional Remarks

A30A-16 CALM WND RWY.
EXTDD TFC PAT OPS N OF ARPT MAY CONFLICT WITH ST PAUL DOWNTOWN ARPT CTLD ASP; CTC STP ATCT 119.1.
FREQUENT HEL OPS OVR MISSISSIPPI RIVER E OF ARPT BLW 2200 FT MSL.
WATERFOWL ON & INVOF ARPT.
FOR CD CTC MINNEAPOLIS APCH AT 612-726-9086.

Instrument Procedures

NOTE: All procedures below are presented as PDF files. If you need a reader for these files, you should download the free Adobe Reader.

NOT FOR NAVIGATION. Please procure official charts for flight.
FAA instrument procedures published for use from 25 March 2021 at 0901Z to 22 April 2021 at 0900z.

 
STARs - Standard Terminal Arrivals
AGUDE FIVE   download (275KB)
 
IAPs - Instrument Approach Procedures
RNAV (GPS) RWY 34   download (258KB)
LOC RWY 34   download (289KB)
NOTE: Special Alternate Minimums apply   download (81KB)
NOTE: Special Take-Off Minimums/Departure Procedures apply   download

Other nearby airports with instrument procedures:

KSTP - St Paul Downtown Airport Holman Field (5 nm N)
KMSP - Minneapolis-St Paul International/Wold-Chamberlain Airport (8 nm W)
21D - Lake Elmo Airport (11 nm NE)
KLVN - Airlake Airport (16 nm SW)
KFCM - Flying Cloud Airport (18 nm W)
KMIC - Crystal Airport (18 nm NW)
KANE - Anoka County-Blaine Airport (Janes Field) (19 nm NW)
 
Loc | Ops | Rwys | IFR | FBO | Links
Com | Nav | Svcs | Stats | Notes
Area around KSGS (South St Paul Municipal Airport-Richard E Fleming Field)
 
Road maps at: MapQuest Bing Google
 
Aerial photo
WARNING: Photo may not be current or correct
Aerial photo of KSGS (South St Paul Municipal Airport-Richard E Fleming Field)
Photo taken 24-Nov-2012

Do you have a better or more recent aerial photo of South St Paul Municipal Airport-Richard E Fleming Field that you would like to share? If so, please send us your photo.

 
Sectional chart

 
Airport distance calculator
Flying to South St Paul Municipal Airport-Richard E Fleming Field? Find the distance to fly.

From to KSGS

Sunrise and sunset
Times for 17-Apr-2021
 Local
(UTC-5)
 Zulu
(UTC)
Morning civil twilight05:5410:54
Sunrise06:2511:25
Sunset19:5800:58
Evening civil twilight20:2901:29

Current date and time
Zulu (UTC)  18-Apr-2021 01:04:12
Local (UTC-5)  17-Apr-2021 20:04:12
 
METAR
KSTP 
5nm N 
180053Z 33009KT 10SM OVC085 12/M03 A2998 RMK AO2 SLP155 T01221033
KSGS 
5nm W 
180055Z AUTO 33008KT 10SM OVC090 13/M04 A2997 RMK AO2 T01271041
KMSP 
9nm W 
180053Z 32011KT 10SM FEW055 SCT085 BKN100 12/M04 A2998 RMK AO2 SLP157 T01221039
K21D 
11nm NE 
180008Z AUTO 30007KT 10SM OVC085 12/M03 A2999 RMK AO2
KLVN 
16nm SW 
180055Z AUTO 31006KT 10SM OVC090 11/M04 A2998 RMK AO2
KANE 
18nm NW 
180055Z 32007KT 10SM BKN085 13/M04 A2998
KMIC 
18nm NW 
180053Z 32008KT 10SM OVC080 12/M04 A2997 RMK AO2 SLP154 T01221039
KFCM 
19nm W 
180053Z 31007KT 10SM OVC085 12/M03 A2998 RMK AO2 SLP155 T01221028
TAF
KMSP 
9nm W 
172100Z 1721/1824 31009G16KT P6SM BKN080 FM180300 29004KT P6SM SCT100 FM181000 24006KT P6SM FEW150 FM181800 25012G21KT P6SM BKN090
NOTAMs
Click for the latest NOTAMs
NOTAMs are issued by the DoD/FAA and will open in a separate window not controlled by AirNav.

 

 
 

FBO, Fuel Providers, and Aircraft Ground Support

  
 Business Name 
 
 Contact 
 
 Services / Description 
 
Fuel Prices
 
Comments
  
 City of South St. Paul (FBO)
UNICOM 122.70
651-554-3350
[web site]
[email]

Like us on facebook
Dedicated to Maj. Richard F. Fleming, the South St. Paul Airport is near the Minneapolis-St. Paul Twin City metropolitan business center, which is one of the largest commercial centers between the East and West coasts. We are the ideal refueling stop for GA aircraft.
 
Face masks required   Cessna Service Center   Wireless Internet Access (WiFi)   Wheelchair Accessible  
 
More info about City of South St. Paul (FBO)
Phillips 66
100LL UL94 Jet A
SS $4.49 $4.39 $3.09 
 Updated 14-Apr-2021
 
   1 read write
SS=Self service
Update Fuel Prices
 

Aviation Businesses, Services, and Facilities

  
 Business Name 
 
 Contact 
 
 Services / Description 
 
Distance
 
Comments
  
Air Trek North 952-594-1184
[web site]
[email]
Flight training, Aircraft maintenance

More info about Air Trek North
on airport  
   write
 

Would you like to see your business listed on this page?

 If your business provides an interesting product or service to pilots, flight crews, aircraft, or users of the South St Paul Municipal Airport-Richard E Fleming Field, you should consider listing it here.  To start the listing process, click on the button below
 
Add a business
 

Other Pages about South St Paul Municipal Airport-Richard E Fleming Field

www.flemingfield.com
 
Update a link
 
Copyright © AirNav, LLC. All rights reserved. Privacy Policy  Contact